DW0664 Weather Reports


Display with metric or nautical units.
time (UTC)temp
F
wind
direction
speed
MPH
gust
MPH
rain 1hr
in
rain 24hr
in
rain mn
in
humidity
%
barometer
mb
20260906014605 82 98 1.0 3.0 0.00 0.00 0.00 78 1014.5
20260906014102 82 108 1.0 1.0 0.00 0.00 0.00 78 1014.1
20260906013557 82 65 0.0 3.0 0.00 0.00 0.00 78 1013.8
20260906013052 82 63 0.0 3.0 0.00 0.00 0.00 78 1013.6
20260906012547 82 46 1.0 3.0 0.00 0.00 0.00 77 1014.0
20260906012046 82 83 0.0 1.0 0.00 0.00 0.00 76 1013.8
20260906011543 82 86 1.0 2.0 0.00 0.00 0.00 76 1013.9
20260906011042 82 69 0.0 3.0 0.00 0.00 0.00 76 1013.8
20260906010538 83 85 1.0 2.0 0.00 0.00 0.00 75 1013.7
20260906010034 83 64 0.0 4.0 0.00 0.00 0.00 74 1013.9
20260906005533 83 91 3.0 3.0 0.00 0.00 0.00 74 1013.8
20260906005032 83 106 2.0 3.0 0.00 0.00 0.00 73 1013.9
20260906004532 83 131 3.0 6.0 0.00 0.00 0.00 73 1014.1
20260906004027 84 116 1.0 2.0 0.00 0.00 0.00 73 1014.3
20260906003523 84 83 1.0 3.0 0.00 0.00 0.00 72 1014.3
20260906003019 84 103 1.0 3.0 0.00 0.00 0.00 71 1014.3
20260906002519 84 62 1.0 3.0 0.00 0.00 0.00 70 1014.3
20260906002013 85 240 2.0 3.0 0.00 0.00 0.00 70 1014.1
20260906001509 85 61 2.0 8.0 0.00 0.00 0.00 69 1014.4
20260906001003 85 101 4.0 6.0 0.00 0.00 0.00 68 1014.3
20260906000459 85 82 2.0 4.0 0.00 0.00 0.00 68 1014.2
20260905235954 86 58 0.0 1.0 0.00 0.00 0.00 68 1014.2
20260905235453 86 109 4.0 6.0 0.00 0.00 0.00 67 1014.1
20260905234948 86 60 0.0 2.0 0.00 0.00 0.00 67 1014.1
20260905234444 86 58 1.0 7.0 0.00 0.00 0.00 66 1014.2
20260905233938 87 92 1.0 4.0 0.00 0.00 0.00 66 1014.1
20260905233434 87 74 2.0 4.0 0.00 0.00 0.00 65 1013.9
20260905232932 87 68 1.0 3.0 0.00 0.00 0.00 65 1013.9
20260905232429 88 30 1.0 6.0 0.00 0.00 0.00 65 1013.7
20260905231924 88 87 1.0 3.0 0.00 0.00 0.00 66 1013.9
20260905231420 88 63 0.0 3.0 0.00 0.00 0.00 66 1013.7
20260905230916 88 63 0.0 2.0 0.00 0.00 0.00 66 1013.8
20260905230414 89 68 3.0 6.0 0.00 0.00 0.00 66 1013.7
20260905225913 89 60 0.0 0.0 0.00 0.00 0.00 69 1013.6
20260905225408 88 60 0.0 0.0 0.00 0.00 0.00 69 1013.5
20260905224903 88 62 0.0 0.0 0.00 0.00 0.00 70 1013.6
20260905224359 88 63 0.0 0.0 0.00 0.00 0.00 70 1013.7
20260905223853 88 65 0.0 0.0 0.00 0.00 0.00 69 1013.5
20260905223351 89 80 1.0 1.0 0.00 0.00 0.00 68 1013.8
20260905222845 90 59 0.0 1.0 0.00 0.00 0.00 66 1014.0
20260905222344 90 61 0.0 0.0 0.00 0.00 0.00 64 1014.0
20260905221840 90 58 0.0 1.0 0.00 0.00 0.00 64 1013.8
20260905221337 90 97 1.0 2.0 0.00 0.00 0.00 62 1013.9
20260905220833 91 58 0.0 2.0 0.00 0.00 0.00 62 1013.5
20260905220329 92 61 0.0 1.0 0.00 0.00 0.00 60 1013.8
20260905215828 93 61 0.0 2.0 0.00 0.00 0.00 58 1013.6
20260905215323 94 61 0.0 0.0 0.00 0.00 0.00 56 1013.5
20260905214820 93 67 0.0 1.0 0.00 0.00 0.00 54 1013.4
20260905214315 93 63 0.0 1.0 0.00 0.00 0.00 55 1013.4
20260905213810 93 3 0.0 1.0 0.00 0.00 0.00 55 1013.6
20260905213307 93 55 0.0 1.0 0.00 0.00 0.00 56 1013.6
20260905212806 93 63 0.0 1.0 0.00 0.00 0.00 54 1013.7
20260905212301 93 59 0.0 1.0 0.00 0.00 0.00 54 1013.7
20260905211801 93 42 0.0 1.0 0.00 0.00 0.00 56 1013.9
20260905211256 93 54 0.0 1.0 0.00 0.00 0.00 56 1013.9
20260905210753 93 58 0.0 2.0 0.00 0.00 0.00 56 1013.8
20260905210252 94 43 0.0 2.0 0.00 0.00 0.00 56 1014.0
20260905205751 94 63 0.0 1.0 0.00 0.00 0.00 55 1014.0
20260905205246 95 72 0.0 0.0 0.00 0.00 0.00 53 1014.0
20260905204745 95 50 1.0 2.0 0.00 0.00 0.00 54 1014.2
20260905204241 95 71 1.0 1.0 0.00 0.00 0.00 51 1014.2
20260905203740 96 36 1.0 2.0 0.00 0.00 0.00 52 1014.0
20260905203236 96 51 0.0 1.0 0.00 0.00 0.00 52 1014.2
20260905202731 96 73 0.0 1.0 0.00 0.00 0.00 51 1014.3
20260905202226 96 67 0.0 3.0 0.00 0.00 0.00 52 1014.3
20260905200108 97 109 2.0 2.0 0.00 0.00 0.00 52 1014.6
20260905195602 97 109 2.0 2.0 0.00 0.00 0.00 52 1014.6
20260905195057 98 329 1.0 3.0 0.00 0.00 0.00 49 1014.7
20260905194556 96 105 1.0 2.0 0.00 0.00 0.00 49 1014.7
20260905194056 94 5 0.0 1.0 0.00 0.00 0.00 55 1014.8
20260905193545 92 54 0.0 1.0 0.00 0.00 0.00 57 1015.3
20260905193041 92 121 1.0 4.0 0.00 0.00 0.00 59 1015.0
20260905192535 93 40 1.0 3.0 0.00 0.00 0.00 59 1014.8
20260905192032 91 95 1.0 3.0 0.00 0.00 0.00 61 1015.0
20260905171820 93 120 2.0 4.0 0.00 0.00 0.00 57 1016.9
20260905171317 93 120 2.0 4.0 0.00 0.00 0.00 57 1016.9
20260905170813 94 93 3.0 4.0 0.00 0.00 0.00 56 1017.0
20260905170308 94 41 0.0 1.0 0.00 0.00 0.00 56 1017.1
20260905165807 93 67 0.0 1.0 0.00 0.00 0.00 58 1016.9
20260905165306 91 84 0.0 1.0 0.00 0.00 0.00 60 1017.0
20260905164803 92 73 1.0 1.0 0.00 0.00 0.00 61 1017.1
20260905164258 93 83 1.0 1.0 0.00 0.00 0.00 60 1017.2
20260905163753 92 56 0.0 1.0 0.00 0.00 0.00 61 1016.9
20260905163249 93 125 1.0 1.0 0.00 0.00 0.00 61 1017.1
20260905162745 92 91 0.0 1.0 0.00 0.00 0.00 63 1017.1
20260905162245 92 36 0.0 2.0 0.00 0.00 0.00 64 1017.0
20260905161739 91 105 0.0 1.0 0.00 0.00 0.00 66 1017.1
20260905161238 91 352 1.0 2.0 0.00 0.00 0.00 66 1017.2
20260905160737 89 353 1.0 2.0 0.00 0.00 0.00 67 1017.3
20260905160237 91 328 2.0 2.0 0.00 0.00 0.00 67 1017.2
20260905155732 89 66 1.0 2.0 0.00 0.00 0.00 68 1017.0
20260905155231 90 86 0.0 1.0 0.00 0.00 0.00 69 1016.9
20260905154725 89 65 0.0 1.0 0.00 0.00 0.00 68 1017.0
20260905154221 90 81 1.0 1.0 0.00 0.00 0.00 66 1017.1
20260905153716 91 229 1.0 3.0 0.00 0.00 0.00 67 1017.1
20260905153212 91 65 0.0 1.0 0.00 0.00 0.00 66 1017.1
20260905152707 91 161 1.0 2.0 0.00 0.00 0.00 67 1017.0
20260905152201 89 4 0.0 1.0 0.00 0.00 0.00 69 1017.0
20260905151655 89 40 1.0 1.0 0.00 0.00 0.00 69 1017.1
20260905151151 91 86 0.0 2.0 0.00 0.00 0.00 68 1016.9
20260905150646 90 67 0.0 1.0 0.00 0.00 0.00 70 1017.0
20260905150145 89 61 1.0 2.0 0.00 0.00 0.00 71 1017.0
20260905145643 88 62 0.0 1.0 0.00 0.00 0.00 73 1016.8
20260905145143 87 2 2.0 3.0 0.00 0.00 0.00 74 1016.9
20260905144637 88 79 2.0 2.0 0.00 0.00 0.00 74 1017.0
20260905144136 88 41 0.0 1.0 0.00 0.00 0.00 75 1017.0
20260905143632 87 70 0.0 1.0 0.00 0.00 0.00 76 1017.0
20260905143131 88 14 1.0 2.0 0.00 0.00 0.00 75 1017.2
20260905142630 88 52 0.0 1.0 0.00 0.00 0.00 74 1017.1
20260905142131 87 64 0.0 1.0 0.00 0.00 0.00 78 1017.0
20260905141631 87 68 0.0 1.0 0.00 0.00 0.00 79 1017.1
20260905141127 87 62 1.0 1.0 0.00 0.00 0.00 78 1017.1
20260905140622 86 58 0.0 0.0 0.00 0.00 0.00 78 1016.9
20260905140121 84 84 0.0 0.0 0.00 0.00 0.00 83 1017.0
20260905135617 84 62 0.0 0.0 0.00 0.00 0.00 84 1016.8
20260905135112 83 64 0.0 0.0 0.00 0.00 0.00 86 1016.8
20260905134607 82 58 0.0 0.0 0.00 0.00 0.00 86 1016.9
20260905134105 81 70 0.0 0.0 0.00 0.00 0.00 91 1016.7
20260905133601 80 67 0.0 0.0 0.00 0.00 0.00 93 1016.9
20260905133100 79 62 0.0 0.0 0.00 0.00 0.00 94 1016.7
20260905132600 78 64 0.0 1.0 0.00 0.00 0.00 94 1016.9
20260905132054 78 60 0.0 0.0 0.00 0.00 0.00 95 1016.9
20260905131550 78 66 0.0 1.0 0.00 0.00 0.00 96 1016.7
20260905131045 77 63 0.0 0.0 0.00 0.00 0.00 96 1016.5
20260905130544 77 62 0.0 0.0 0.00 0.00 0.00 97 1016.5
20260905130040 77 84 0.0 1.0 0.00 0.00 0.00 97 1016.5
20260905125539 77 76 0.0 1.0 0.00 0.00 0.00 97 1016.5
20260905125035 76 64 0.0 0.0 0.00 0.00 0.00 97 1016.3
20260905124531 76 64 0.0 1.0 0.00 0.00 0.00 97 1016.3
20260905124027 76 64 0.0 0.0 0.00 0.00 0.00 97 1016.3
20260905123522 76 62 0.0 0.0 0.00 0.00 0.00 97 1016.2
20260905123020 76 61 0.0 0.0 0.00 0.00 0.00 97 1016.3
20260905122519 76 62 0.0 0.0 0.00 0.00 0.00 97 1016.3
20260905122014 75 62 0.0 0.0 0.00 0.00 0.00 97 1016.1
20260905121509 75 60 0.0 0.0 0.00 0.00 0.00 97 1016.1
20260905121008 75 60 0.0 0.0 0.00 0.00 0.00 97 1016.1
20260905120502 75 62 0.0 0.0 0.00 0.00 0.00 97 1015.9
20260905115958 75 62 0.0 0.0 0.00 0.00 0.00 97 1015.9
20260905115457 75 62 0.0 0.0 0.00 0.00 0.00 97 1016.1
20260905114952 75 63 0.0 0.0 0.00 0.00 0.00 97 1016.0
20260905114452 75 61 0.0 0.0 0.00 0.00 0.00 96 1015.9
20260905113950 76 61 0.0 0.0 0.00 0.00 0.00 96 1015.8
20260905113446 76 61 0.0 0.0 0.00 0.00 0.00 96 1015.8
20260905112941 76 61 0.0 0.0 0.00 0.00 0.00 96 1015.8
20260905112436 76 60 0.0 0.0 0.00 0.00 0.00 96 1015.7
20260905111931 76 60 0.0 0.0 0.00 0.00 0.00 96 1015.6
20260905111432 76 60 0.0 0.0 0.00 0.00 0.00 96 1015.4
20260905110926 76 60 0.0 0.0 0.00 0.00 0.00 96 1015.7
20260905110425 76 60 0.0 0.0 0.00 0.00 0.00 96 1015.6
20260905105920 76 60 0.0 0.0 0.00 0.00 0.00 95 1015.7
20260905105420 76 60 0.0 0.0 0.00 0.00 0.00 95 1015.5
20260905104920 76 60 0.0 0.0 0.00 0.00 0.00 95 1015.5
20260905104416 76 60 0.0 0.0 0.00 0.00 0.00 95 1015.5
20260905103916 76 60 0.0 0.0 0.00 0.00 0.00 95 1015.6
20260905103411 76 60 0.0 0.0 0.00 0.00 0.00 95 1015.5
20260905102907 76 60 0.0 0.0 0.00 0.00 0.00 94 1015.3
20260905102403 77 60 0.0 0.0 0.00 0.00 0.00 94 1015.5
20260905101858 77 60 0.0 0.0 0.00 0.00 0.00 94 1015.6
20260905101356 77 60 0.0 0.0 0.00 0.00 0.00 94 1015.6
20260905100857 77 60 0.0 0.0 0.00 0.00 0.00 94 1015.4
20260905100353 77 60 0.0 0.0 0.00 0.00 0.00 94 1015.5
20260905095852 77 62 0.0 0.0 0.00 0.00 0.00 94 1015.5
20260905095347 77 62 0.0 0.0 0.00 0.00 0.00 94 1015.5
20260905094847 78 59 0.0 0.0 0.00 0.00 0.00 93 1015.3
20260905094342 78 62 0.0 0.0 0.00 0.00 0.00 93 1015.4
20260905093841 78 62 0.0 0.0 0.00 0.00 0.00 93 1015.4
20260905093337 78 356 1.0 1.0 0.00 0.00 0.00 93 1015.6
20260905092833 78 49 0.0 1.0 0.00 0.00 0.00 93 1015.4
20260905092332 78 45 0.0 0.0 0.00 0.00 0.00 93 1015.6
20260905091827 78 62 0.0 0.0 0.00 0.00 0.00 93 1015.4
20260905091327 78 60 0.0 0.0 0.00 0.00 0.00 93 1015.5
20260905090826 78 60 0.0 1.0 0.00 0.00 0.00 92 1015.4
20260905090322 78 65 0.0 0.0 0.00 0.00 0.00 92 1015.4
20260905085821 78 62 0.0 0.0 0.00 0.00 0.00 92 1015.2
20260905085316 78 55 0.0 0.0 0.00 0.00 0.00 92 1015.6
20260905084812 78 63 0.0 0.0 0.00 0.00 0.00 92 1015.4
20260905084311 78 61 0.0 0.0 0.00 0.00 0.00 91 1015.4
20260905083806 79 63 0.0 0.0 0.00 0.00 0.00 91 1015.2
20260905083302 79 53 0.0 0.0 0.00 0.00 0.00 91 1015.3
20260905082757 79 68 0.0 0.0 0.00 0.00 0.00 91 1015.2
20260905082253 79 65 0.0 0.0 0.00 0.00 0.00 91 1015.0
20260905081748 79 57 0.0 1.0 0.00 0.00 0.00 90 1015.0
20260905081243 79 65 0.0 0.0 0.00 0.00 0.00 90 1015.2
20260905080742 79 71 0.0 1.0 0.00 0.00 0.00 90 1015.4
20260905080242 79 70 0.0 1.0 0.00 0.00 0.00 90 1015.5
20260905075741 79 61 0.0 1.0 0.00 0.00 0.00 89 1015.4
20260905075240 79 63 0.0 0.0 0.00 0.00 0.00 89 1015.3
20260905074739 79 66 0.0 0.0 0.00 0.00 0.00 89 1015.3
20260905074236 79 55 0.0 0.0 0.00 0.00 0.00 89 1015.6
20260905073731 79 63 0.0 0.0 0.00 0.00 0.00 89 1015.6
20260905073226 79 76 0.0 0.0 0.00 0.00 0.00 89 1015.5
20260905072725 80 42 0.0 0.0 0.00 0.00 0.00 88 1015.5
20260905072221 80 79 0.0 1.0 0.00 0.00 0.00 88 1015.6
20260905071718 80 57 0.0 0.0 0.00 0.00 0.00 88 1015.7
20260905071214 80 65 0.0 0.0 0.00 0.00 0.00 88 1015.6
20260905070708 80 66 0.0 1.0 0.00 0.00 0.00 88 1015.8
20260905070204 80 53 0.0 0.0 0.00 0.00 0.00 87 1015.8
20260905065703 80 63 1.0 1.0 0.00 0.00 0.00 87 1015.8
20260905065157 80 72 1.0 1.0 0.00 0.00 0.00 87 1015.7
20260905064652 80 77 0.0 1.0 0.00 0.00 0.00 87 1016.0
20260905064148 80 137 2.0 4.0 0.00 0.00 0.00 87 1016.0
20260905063646 80 82 1.0 1.0 0.00 0.00 0.00 87 1015.9
20260905063143 80 74 1.0 1.0 0.00 0.00 0.00 86 1016.1
20260905062638 80 66 0.0 2.0 0.00 0.00 0.00 86 1016.0
20260905062137 80 73 1.0 2.0 0.00 0.00 0.00 86 1015.9
20260905061632 80 325 0.0 1.0 0.00 0.00 0.00 86 1015.9
20260905061132 80 63 0.0 1.0 0.00 0.00 0.00 85 1016.0
20260905060627 80 85 0.0 1.0 0.00 0.00 0.00 85 1015.9
20260905060124 80 64 0.0 1.0 0.00 0.00 0.00 84 1015.9
20260905055622 81 85 1.0 1.0 0.00 0.00 0.00 84 1015.7
20260905055117 81 66 0.0 0.0 0.00 0.00 0.00 84 1015.9
20260905054613 81 45 0.0 0.0 0.00 0.00 0.00 83 1015.9
20260905054108 81 58 0.0 1.0 0.00 0.00 0.00 83 1016.1
20260905053608 81 81 0.0 1.0 0.00 0.00 0.00 83 1015.8
20260905053103 81 66 0.0 0.0 0.00 0.00 0.00 82 1016.0
20260905052602 81 129 2.0 3.0 0.00 0.00 0.00 82 1015.8
20260905052057 82 75 0.0 1.0 0.00 0.00 0.00 81 1015.8
20260905051553 82 61 0.0 0.0 0.00 0.00 0.00 80 1015.8
20260905051050 82 78 0.0 2.0 0.00 0.00 0.00 79 1015.9
20260905050546 82 86 0.0 1.0 0.00 0.00 0.00 79 1015.7
20260905050043 82 91 0.0 2.0 0.00 0.00 0.00 78 1015.8
20260905045537 83 71 0.0 1.0 0.00 0.00 0.00 78 1016.0
20260905045032 82 66 1.0 2.0 0.00 0.00 0.00 78 1016.0
20260905044532 82 65 0.0 1.0 0.00 0.00 0.00 78 1015.9
20260905044026 83 74 0.0 1.0 0.00 0.00 0.00 78 1015.9
20260905043526 83 82 0.0 1.0 0.00 0.00 0.00 78 1016.1
20260905043021 83 82 1.0 3.0 0.00 0.00 0.00 78 1015.9
20260905042515 83 113 2.0 4.0 0.00 0.00 0.00 78 1016.0
20260905042010 83 95 2.0 6.0 0.00 0.00 0.00 77 1015.8
20260905041505 82 59 1.0 2.0 0.00 0.00 0.00 77 1015.8
20260905041000 83 74 1.0 1.0 0.00 0.00 0.00 77 1015.7
20260905040459 83 88 1.0 4.0 0.00 0.00 0.00 77 1015.8
20260905035958 83 184 3.0 3.0 0.00 0.00 0.00 77 1016.1
20260905035454 83 85 0.0 3.0 0.00 0.00 0.00 77 1016.1
20260905034951 83 70 1.0 2.0 0.00 0.00 0.00 78 1016.2
20260905034446 83 111 3.0 4.0 0.00 0.00 0.00 78 1016.4
20260905033945 83 65 1.0 2.0 0.00 0.00 0.00 77 1016.1
20260905033445 83 62 1.0 2.0 0.00 0.00 0.00 77 1016.0
20260905032940 83 93 1.0 2.0 0.00 0.00 0.00 77 1016.0
20260905032436 83 85 1.0 1.0 0.00 0.00 0.00 76 1016.1
20260905031931 83 70 0.0 2.0 0.00 0.00 0.00 76 1016.1
20260905031426 83 92 0.0 2.0 0.00 0.00 0.00 76 1015.9
20260905030922 83 97 0.0 1.0 0.00 0.00 0.00 76 1016.0
20260905030417 83 69 0.0 1.0 0.00 0.00 0.00 76 1015.8
20260905025916 83 80 0.0 1.0 0.00 0.00 0.00 76 1015.9
20260905025411 83 69 0.0 0.0 0.00 0.00 0.00 76 1016.0
20260905024908 83 91 1.0 1.0 0.00 0.00 0.00 75 1015.7
20260905024408 83 75 1.0 1.0 0.00 0.00 0.00 75 1015.8
20260905023903 84 68 0.0 1.0 0.00 0.00 0.00 74 1015.9
20260905023353 84 86 0.0 2.0 0.00 0.00 0.00 74 1015.8
20260905022851 84 101 0.0 3.0 0.00 0.00 0.00 74 1015.6
20260905022348 84 76 0.0 2.0 0.00 0.00 0.00 74 1015.7
20260905021847 84 88 0.0 1.0 0.00 0.00 0.00 73 1015.8
20260905021342 84 67 0.0 1.0 0.00 0.00 0.00 72 1015.5
20260905020837 84 75 1.0 1.0 0.00 0.00 0.00 72 1015.6
20260905020332 84 69 0.0 0.0 0.00 0.00 0.00 72 1015.6
20260905015831 84 94 0.0 1.0 0.00 0.00 0.00 71 1015.5
20260905015330 85 77 0.0 1.0 0.00 0.00 0.00 70 1015.2